Regional Weather Roundup
Issued by NWS Cleveland, OH

Home | Current Version | Previous Version | Graphics & Text | Print | Product List | Glossary On
Versions: 1 2 3 4 5 6 7 8 9 10 11 12 13 14 15 16 17 18 19 20 21 22 23 24 25 26 27 28 29 30 31 32 33 34 35 36 37 38 39 40 41 42 43 44 45 46 47 48 49 50
000
ASUS41 KCLE 191410
RWRCLE
OHIO REGIONAL WEATHER ROUNDUP
NATIONAL WEATHER SERVICE CLEVELAND, OH
900 AM EST MON FEB 19 2018

NOTE: "FAIR" INDICATES FEW OR NO CLOUDS BELOW 12,000 FEET WITH NO
SIGNIFICANT WEATHER AND/OR OBSTRUCTIONS TO VISIBILITY.

OHZ001>008-015>018-024>027-034-035-043-044-191500-
   NORTHWEST OHIO

CITY           SKY/WX    TMP DP  RH WIND       PRES   REMARKS
DEFIANCE       CLOUDY    41  39  93 S3        30.00S FOG
FINDLAY        CLOUDY    44  41  89 S8        30.02R
TOLEDO EXPRESS CLOUDY    41  41 100 S6        30.00F FOG
TOLEDO EXEC    CLOUDY    41  39  93 S8        30.03R FOG
LIMA           LGT RAIN  49  48  97 S13       30.02S
$$

OHZ009>014-019>023-028>033-038-089-191500-
   NORTHEAST OHIO

CITY           SKY/WX    TMP DP  RH WIND       PRES   REMARKS
CLE-HOPKINS    LGT RAIN  45  43  93 S13       30.09R
CLE-LAKEFRONT  LGT RAIN  43  39  86 S22G30    30.05R
CUY CO. ARPT   LGT RAIN  43  41  93 S17       30.09R FOG
LORAIN-ELYRIA  LGT RAIN  42  36  79 S16       30.07S
ASHTABULA      CLOUDY    40  37  89 S13G23    30.12R
AKRON-CANTON   RAIN      44  39  82 CALM      30.13R
WOOSTER        RAIN      42  41  96 S3        30.12F FOG
MANSFIELD      RAIN      44  43  96 SE10      30.08S FOG
YOUNGSTOWN     LGT RAIN  41  37  86 SE13      30.12F FOG
$$

OHZ042-051>053-060>062-070>072-077>081-191500-
  SOUTHWEST OHIO

CITY           SKY/WX    TMP DP  RH WIND       PRES   REMARKS
CINC-COVINGTON LGT RAIN  59  57  93 S15G23    30.07R
CINC-LUNKEN    CLOUDY    58  55  90 S10       30.09R
HAMILTON       LGT RAIN  59  57  93 S8G17     30.07R FOG
DAYTON         CLOUDY    52  52 100 S13       30.05R
WRIGHT-PAT AFB LGT RAIN  55  55 100 S12       30.04R
DAYTON GENERAL CLOUDY    55  52  89 S12       30.05S
WILMINGTON     CLOUDY    54  54 100 S16       30.07R
$$

OHZ036-037-039>041-045>050-054>059-063>069-073>076-082>088-191500-
  CENTRAL AND SOUTHEAST OHIO

CITY           SKY/WX    TMP DP  RH WIND       PRES   REMARKS
COLUMBUS       RAIN      50  49  96 S12       30.08S FOG
OSU AIRPORT    CLOUDY    47  47 100 S9        30.07S FOG
BOLTON FIELD   LGT RAIN  46  45  93 S9        30.08R
RICKENBACK AFB LGT RAIN  49  49  99 S17       30.08F
NEWARK         LGT RAIN  48  45  89 S10       30.09S
MARION         RAIN      45  44  97 S10       30.07F FOG
LANCASTER      CLOUDY    51  48  89 S15       30.11S
ZANESVILLE     CLOUDY    47  44  90 SE3       30.13S
NEW PHILLY     NOT AVBL
$$



USA.gov is the U.S. government's official web portal to all federal, state and local government web resources and services.